Location: Abundant Grace Fellowship
(35.0349°N, 90.0924°W)
Time: 23:23:41
(UTC+00:00)

SJ-7 - Pass Details

Date: 18 January 2026
Orbit: 495 x 520 km, 97.7° (Epoch: 13 February)

Event Time Altitude Azimuth Distance (km) Brightness Sun altitude
Rises 00:45:34 0° 170° (S) 2,634 7.8 -18.5°
Reaches altitude 10° 00:47:40 10° 172° (S) 1,750 6.9 -19.0°
Maximum altitude 00:51:26 75° 258° (WSW) 543 4.3 -19.7°
Drops below altitude 10° 00:55:13 10° 344° (NNW) 1,757 6.9 -20.5°
Sets 00:57:20 0° 347° (NNW) 2,646 7.8 -20.9°
